Regional Weather Roundup
Issued by NWS

Home | Current Version | Previous Version | Graphics & Text | Print | Product List | Glossary On
Versions: 1 2 3 4 5 6 7 8 9 10 11 12 13 14 15 16 17 18 19 20 21 22 23 24 25 26 27 28 29 30 31 32 33 34 35 36 37 38 39 40 41 42 43 44 45 46 47 48 49 50
000
ASUS43 KBIS 270702
RWRND

NORTH DAKOTA REGIONAL WEATHER ROUNDUP
NATIONAL WEATHER SERVICE BISMARCK ND
200 AM CDT WED JUL 27 2016

NOTE: "FAIR" INDICATES FEW OR NO CLOUDS BELOW 12,000 FEET WITH NO
SIGNIFICANT WEATHER AND/OR OBSTRUCTIONS TO VISIBILITY.


NDZ001>003-009>011-017-270800-
NORTHWEST NORTH DAKOTA

CITY           SKY/WX    TMP DP  RH WIND       PRES   REMARKS
WILLISTON      CLEAR     64  55  72 NE6       30.09F
MINOT          MOCLDY    66  62  87 N5        30.06R
MINOT AFB      CLOUDY    64  60  87 NE6       30.06R
$$

NDZ018>021-031>035-040>046-270800-
SOUTHWEST NORTH DAKOTA

CITY           SKY/WX    TMP DP  RH WIND       PRES   REMARKS
BISMARCK       CLOUDY    63  61  93 N6        30.05R
DICKINSON      CLEAR     55  54  96 CALM      30.10R
GARRISON         N/A     62  60  93 NE5       30.06R
HETTINGER ARPT CLEAR     61  58  90 NE9       30.10S
$$

NDZ004>008-012>016-024-026-027-054-270800-
NORTHEAST NORTH DAKOTA

CITY           SKY/WX    TMP DP  RH WIND       PRES   REMARKS
GRAND FORKS    CLOUDY    68  64  87 CALM      30.02S
GRND FRKS AFB  CLOUDY    67  62  84 NE6       30.03S
DEVILS LAKE    CLOUDY    63  60  90 NE8       30.06R
$$

NDZ022-023-025-028>030-036>039-047>053-270800-
SOUTHEAST NORTH DAKOTA

CITY           SKY/WX    TMP DP  RH WIND       PRES   REMARKS
FARGO          CLOUDY    69  65  86 N5        29.96S
JAMESTOWN      CLOUDY    65  64  97 N7        30.01S
$$





USA.gov is the U.S. government's official web portal to all federal, state and local government web resources and services.